Location: Los Angeles Times Costa Mesa Heliport
(33.6939°N, 117.9178°W)
Time: 03:09:48
(UTC+00:00)

Daily predictions for brighter satellites

Satellite Brightness Start Highest point End
(mag) Time Altitude Azimuth Time Altitude Azimuth Time Altitude Azimuth
CSL-04 Rocket 3.9 03:13:06 10° SSE 03:18:11 51° ENE 03:23:20 10° N
Cosmos 1400 Rocket 2.8 03:15:31 10° N 03:19:24 88° W 03:23:19 10° S
Cosmos 1544 4.0 03:16:55 10° NNE 03:20:00 28° E 03:23:04 10° SE
CENTAUR R/B 3.5 03:14:54 10° NNW 03:23:25 70° ENE 03:32:28 10° SE
Cosmos 2227 Rocket 3.6 03:19:25 10° N 03:23:44 22° ENE 03:28:02 10° ESE
Cosmos 1151 Rocket 3.1 03:21:23 10° S 03:25:33 54° E 03:29:43 10° NNE
deb Chang Zheng 4 3.6 03:22:39 10° S 03:26:46 81° W 03:30:54 10° NNW
Cosmos 1980 Rocket 3.4 03:23:14 10° SE 03:27:14 20° E 03:31:15 10° NE
COSMOS 2487 3.0 03:25:03 10° NNW 03:28:04 49° WSW 03:31:04 10° S
Cosmos 1725 Rocket 4.4 03:21:49 10° SSW 03:28:06 72° W 03:34:25 10° N
ASTRO E2 2.7 03:24:28 10° W 03:28:19 62° S 03:32:12 10° E
Resurs 1-3 4.4 03:26:24 10° SE 03:30:20 34° ENE 03:34:18 10° N
Cosmos 1743 Rocket 4.3 03:26:47 10° NNW 03:31:09 56° W 03:35:27 10° S
Cosmos 1812 4.3 03:27:56 10° SSW 03:31:30 39° W 03:35:06 10° N
USA 238 DEB 4.3 03:27:46 10° NNW 03:34:58 51° NE 03:42:06 11° SE
Cosmos 1666 Rocket 4.2 03:30:58 10° NNE 03:35:03 37° E 03:39:10 10° SSE
USA 238 4.3 03:27:53 10° NNW 03:35:05 51° NE 03:42:12 11° SE
Cosmos 1805 Rocket 3.8 03:31:27 10° N 03:35:54 76° W 03:40:18 10° S
SL-12 R/B (Aux Motor) 4.3 03:32:50 10° SW 03:37:52 66° SE 03:40:04 10° ENE
Cosmos 44 3.0 03:34:23 10° NNW 03:38:41 68° ENE 03:42:47 11° SE
USA 234 4.2 03:33:04 10° SSE 03:39:14 43° SW 03:45:26 10° WNW
Gbstr 26 Del rocket 4.2 03:33:00 10° NW 03:40:30 77° NE 03:46:03 13° SE
SJ 16-02 3.2 03:39:52 11° ESE 03:40:41 12° E 03:42:12 10° ENE
Okean O Rocket 4.2 03:38:54 10° SW 03:41:59 19° W 03:45:05 10° NW
Cosmos 1633 Rocket 3.7 03:39:50 10° NNE 03:43:54 37° E 03:47:26 13° SE
Cosmos 1697 Rocket 2.7 03:40:28 10° S 03:46:03 69° ESE 03:51:42 10° NNE
H-2A R/B 2.6 03:41:43 10° SSE 03:46:08 86° WSW 03:50:27 10° NNW
CZ-4 R/B 3.7 03:43:13 10° SSW 03:46:24 23° W 03:49:39 10° NW
OAO 3 Rocket 3.4 03:42:45 10° W 03:47:40 75° N 03:52:38 10° E
Cosmos 2360 4.2 03:43:29 10° S 03:49:06 69° ESE 03:54:45 10° NNE
Landsat 7 4.2 03:46:16 12° SE 03:50:25 46° ENE 03:54:56 10° N
Sich 1 3.6 03:48:20 10° NNW 03:52:37 59° W 03:56:50 10° S
Cosmos 1515 4.4 03:50:28 14° SSE 03:53:13 32° E 03:56:37 10° NNE
Cosmos 1570 Rocket 4.0 03:50:04 10° NNW 03:55:19 73° ENE 03:59:57 13° SSE
Resurs 01 Rocket 2.5 03:53:43 17° SE 03:56:26 32° ENE 04:00:20 10° N
Cosmos 1486 Rocket 4.0 03:52:34 10° S 03:57:50 69° ESE 04:03:05 10° NNE
SJ-6B 3.3 03:54:21 10° S 03:58:08 58° W 04:01:53 10° NNW
Tsikada Rocket 4.3 03:53:24 10° N 03:59:39 71° W 04:05:48 10° S
Cosmos 1814 Rocket 4.2 03:55:30 10° NNW 04:00:37 72° WSW 04:05:43 10° S
Cosmos 2297 Rocket 2.2 03:55:21 10° NNW 04:00:59 70° ENE 04:05:25 17° SSE
Cosmos 1315 Rocket 2.7 03:57:25 10° N 04:01:29 74° E 04:04:40 15° SSE
Cosmos 1515 Rocket 3.9 03:59:00 13° SSE 04:02:35 44° E 04:06:45 10° NNE
ARGOS Delta rocket 4.2 03:59:16 10° NNE 04:04:38 55° E 04:09:51 10° S
Cosmos 1340 3.0 04:03:00 18° SSE 04:05:21 41° E 04:08:54 10° NNE
Cosmos 1184 Rocket 3.5 04:05:15 27° ESE 04:05:39 28° E 04:08:18 10° NNE
Cosmos 389 Rocket 4.1 04:03:40 10° NNE 04:06:10 18° ENE 04:06:38 18° E
Cosmos 405 3.4 04:03:29 10° N 04:06:44 40° E 04:08:03 27° SE
ATLAS 5 CENTAUR R/B 3.4 03:54:35 10° W 04:07:29 26° SSW 04:11:26 15° SSE
Okean-O 3.9 04:04:01 10° SSW 04:08:08 39° W 04:12:17 10° NNW
Meteor 1-10 Rocket 4.4 04:06:20 10° SSW 04:11:50 73° W 04:17:25 10° N
SL-16 R/B 4.2 04:15:42 10° E 04:15:42 10° E 04:15:57 10° E
IGS 5A 4.1 04:14:25 11° S 04:18:19 54° W 04:22:23 10° NNW
Cosmos 1743 3.4 04:16:03 10° NNE 04:19:30 33° E 04:20:13 30° ESE
Meteor 1-27 Rocket 3.7 04:16:03 10° S 04:21:45 82° E 04:27:37 10° N
PSLV R/B 4.4 04:18:44 10° N 04:22:42 58° WNW 04:26:39 10° SSW
CZ-4B R/B 1.7 04:20:26 10° N 04:23:34 60° WNW 04:26:11 13° SSW
Cosmos 1503 Rocket 3.9 04:21:46 10° S 04:26:58 74° ESE 04:32:16 10° NNE
ATLAS 2AS CENTAUR R/B 2.9 04:23:30 10° SSW 04:31:14 69° ESE 04:38:52 10° NE
Cosmos 2278 3.9 04:30:19 21° S 04:33:53 49° ESE 04:39:19 10° NNE
SPOT 1/Viking Rocket 3.5 04:34:06 30° SSE 04:36:42 76° ENE 04:41:52 10° N
Cosmos 2219 3.1 04:33:29 10° NNW 04:39:08 87° ENE 04:41:46 33° SSE
H-2A R/B 4.0 04:35:43 10° NNW 04:39:13 28° WNW 04:42:43 10° SW
Meteor 1-11 Rocket 3.9 04:35:51 10° N 04:41:51 80° W 04:45:33 24° S
Okean 1 3.3 04:44:53 55° ESE 04:45:09 57° E 04:49:05 10° NNE
RESURS DK-1 2.2 04:45:24 50° S 04:46:19 69° ESE 04:50:25 10° NNE
Cosmos 2082 4.1 04:40:58 10° N 04:46:24 48° ENE 04:48:04 37° ESE
Cosmos 1464 Rocket 4.1 04:42:01 10° S 04:48:14 75° W 04:54:24 10° N
Cosmos 1536 2.8 04:44:19 10° N 04:48:20 77° W 04:49:23 48° S
Cosmos 2263 Rocket 3.4 04:46:30 10° N 04:51:02 25° ENE 04:52:15 23° E
SL-4 R/B 2.6 04:52:42 10° NW 04:57:03 48° NE 04:57:41 44° ENE
Ariane Rocket 3.2 04:58:25 36° S 05:00:26 66° WSW 05:05:30 10° NNW
CZ-2C R/B 3.9 05:00:51 10° NNE 05:05:24 54° E 05:05:24 54° E
Cosmos 2227 Rocket 3.0 05:02:35 10° NW 05:07:57 44° WSW 05:10:21 29° SSW
ASTRO E2 3.9 05:04:40 10° W 05:07:05 30° WSW 05:07:05 30° WSW
Cosmos 1634 Rocket 4.2 05:08:17 45° ESE 05:09:09 49° E 05:15:05 10° NNE
Cosmos 1092 Rocket 4.3 05:03:24 10° N 05:09:18 45° E 05:10:09 43° ESE
Cosmos 1933 Rocket 4.0 05:06:24 10° NNW 05:10:48 60° W 05:11:39 49° SW
Cosmos 1980 Rocket 3.3 05:05:29 10° SW 05:10:48 44° WNW 05:16:12 10° N
Nadezhda 4 Rocket 3.9 05:04:39 10° N 05:10:53 88° E 05:12:52 46° S
SPOT 5 3.1 05:13:35 56° ESE 05:14:08 59° ENE 05:19:16 10° N
Helios 1A Rocket 3.1 05:17:41 63° NNE 05:17:41 63° NNE 05:21:08 10° N
Gblst 52 Del rocket 4.4 05:10:08 10° SW 05:17:13 67° SE 05:23:23 10° NE
Cosmos 1975 4.3 05:14:18 10° NNE 05:16:41 27° NE 05:16:41 27° NE
Meteor 2-14 Rocket 4.3 05:12:19 10° N 05:18:26 85° E 05:19:53 55° SSE
SJ 16-02 2.3 05:16:43 26° SW 05:18:44 45° WNW 05:22:56 10° N
Terra 2.5 05:19:10 40° ENE 05:19:10 40° ENE 05:23:17 10° N
Cosmos 2322 Rocket 3.4 05:20:36 27° ENE 05:20:36 27° ENE 05:23:49 10° NE
Meteor 2-4 Rocket 3.7 05:22:05 63° SE 05:22:40 68° E 05:28:21 10° NNE
Milstar 3 Cent rocket 4.4 05:12:20 10° W 05:25:30 32° SW 05:28:23 27° S
Cosmos 783 Rocket 4.3 05:23:45 10° NNW 05:28:57 76° ENE 05:29:00 76° ENE
Celestis-02/Orion 38 4.5 05:29:43 74° SE 05:30:10 82° ENE 05:35:30 10° NNW
Timation 2 Rocket 4.1 05:24:06 10° NNW 05:30:47 89° WSW 05:32:14 59° SSE
SPOT 3 Rocket 4.0 05:30:22 48° SW 05:31:14 54° W 05:36:16 10° NNW
OAO 3 Rocket 3.4 05:26:20 10° W 05:30:38 65° WSW 05:30:38 65° WSW
Resurs 01 Rocket 3.8 05:31:16 15° WSW 05:32:56 18° W 05:35:56 10° NW
Spot 2 Rocket 3.3 05:34:06 83° WSW 05:34:11 84° WSW 05:39:14 10° NNW
Cosmos 2026 Rocket 3.9 05:29:20 10° N 05:35:30 66° E 05:35:58 64° ESE
Cosmos 773 Rocket 4.0 05:39:15 10° NNW 05:44:13 74° WNW 05:44:13 74° WNW
Meteor 2-8 Rocket 4.3 05:48:48 73° SSW 05:49:25 84° W 05:55:32 10° N
Cosmos 1346 Rocket 4.4 05:56:29 33° NNW 05:56:29 33° NNW 05:58:54 10° N
Cosmos 1627 Rocket 4.4 05:48:59 10° N 05:55:14 83° W 05:55:40 77° SSW
SL-16 R/B 2.2 05:57:29 74° W 05:57:35 74° WNW 06:03:16 10° NNE
USA 215 3.1 05:51:51 10° NE 05:58:09 72° ESE 05:58:09 72° ESE
CZ-3 Stage 3 4.5 05:53:57 10° W 05:58:20 26° WSW 05:58:20 26° WSW
USA 81 4.4 06:03:19 60° WNW 06:03:19 60° WNW 06:08:15 10° N
ERS-1 Rocket 4.0 06:12:42 38° W 06:12:42 38° W 06:16:52 10° NNW
Cosmos 2279 Rocket 3.9 06:12:36 78° WNW 06:12:36 78° WNW 06:18:46 10° N
ARIANE 5 R/B 4.0 06:15:52 37° NW 06:15:52 37° NW 06:18:47 10° NNW
Cosmos 44 Rocket 4.4 06:10:06 10° NNW 06:13:11 40° N 06:13:11 40° N
Cosmos 2360 Rocket 3.0 06:25:20 45° NNE 06:25:20 45° NNE 06:29:12 10° NNE
Cosmos 2263 Rocket 3.4 06:29:55 10° NW 06:33:56 34° W 06:33:56 34° W
ATLAS CENTAUR R/B 4.2 06:35:44 10° NNE 06:37:56 14° NE 06:37:56 14° NE
ATLAS 3B R/B 2.8 06:48:22 10° NNW 06:55:31 83° NNW 06:55:31 83° NNW
Terra 4.3 06:58:03 15° WNW 06:58:03 15° WNW 06:59:38 10° NW
Cosmos 2322 Rocket 3.8 07:02:20 27° WNW 07:02:49 28° WNW 07:07:35 10° N
Cosmos 2333 Rocket 3.2 07:07:35 41° NNE 07:07:35 41° NNE 07:11:14 10° NNE
Cosmos 1844 Rocket 3.7 07:09:33 10° NNW 07:13:07 41° NNW 07:13:07 41° NNW
CZ-4C R/B 4.3 07:18:30 10° NNW 07:25:12 33° NE 07:28:18 26° E
Cosmos 2219 Rocket 3.3 07:29:40 39° N 07:29:40 39° N 07:33:11 10° NNE
ADEOS Rocket 3.7 07:50:02 45° N 07:50:02 45° N 07:53:59 10° N
Cosmos 2237 Rocket 3.7 07:58:41 29° NE 07:58:41 29° NE 08:01:39 10° NE
COSMOS 2428 3.8 08:00:10 40° NNW 08:00:10 40° NNW 08:04:00 10° N
USA 267 3.7 08:11:25 52° ENE 08:12:08 54° NE 08:18:29 10° NNW
ATLAS CENTAUR R/B 4.2 08:12:56 10° NW 08:13:56 16° NW 08:13:56 16° NW
Resurs 1-4 Rocket 4.4 08:14:24 10° NE 08:16:15 15° ENE 08:16:15 15° ENE
Cosmos 2278 Rocket 3.2 08:28:10 10° N 08:32:36 43° NNE 08:32:36 43° NNE
Cosmos 2315 Rocket 4.5 08:34:57 56° NE 08:34:57 56° NE 08:40:14 10° NNE
SL-16 R/B 3.6 08:45:29 31° ENE 08:45:29 31° ENE 08:49:08 10° NE
NOSS 3-1 (A) 4.1 08:40:56 10° NNW 08:48:57 85° ENE 08:50:03 72° SE
COSMOS 2455 4.2 08:57:22 28° E 08:57:22 28° E 09:01:36 10° NE
Meteor 1-24 Rocket 4.4 09:05:48 50° ENE 09:05:48 50° ENE 09:10:19 10° NNE
ATLAS 5 CENTAUR R/B 3.7 08:59:48 10° NW 09:04:57 36° NNW 09:04:57 36° NNW
Meteor 2-10 Rocket 4.2 09:02:27 10° N 09:06:51 54° NNE 09:06:51 54° NNE
Lacrosse 5 2.8 09:14:24 45° NNE 09:14:24 45° NNE 09:18:03 10° NNE
CZ-4C R/B 3.2 09:06:28 10° NW 09:13:24 58° W 09:13:24 58° W
Lacrosse 5 rocket 3.6 09:19:29 21° NE 09:19:29 21° NE 09:20:53 10° NE
Meteor 2-5 Rocket 3.9 09:27:59 66° NNW 09:27:59 66° NNW 09:32:58 10° N
CZ-2D R/B 2.4 09:24:28 10° NNE 09:29:03 66° NNE 09:29:03 66° NNE
AQUA 4.5 09:32:19 10° NNE 09:36:12 52° NE 09:36:12 52° NE
Cosmos 2237 Rocket 3.9 09:40:29 21° WNW 09:40:29 21° WNW 09:44:46 10° N
CRYOSAT 2 4.5 09:55:02 69° ENE 09:55:02 69° ENE 09:59:49 10° N
Resurs 1-4 Rocket 2.6 09:52:41 10° N 09:57:19 47° WNW 09:57:19 47° WNW
Cosmos 292 Rocket 3.8 10:00:36 75° NNE 10:00:36 75° NNE 10:05:01 10° NNE
SL-16 R/B 2.4 10:00:07 60° S 10:01:21 87° WSW 10:07:37 10° NNW
Cosmos 1943 Rocket 2.2 09:59:10 10° NNW 10:04:52 77° ENE 10:06:33 47° SE
Cosmos 2297 4.1 10:01:14 10° NNW 10:06:55 61° ENE 10:10:28 23° SE
SEDSat Delta rocket 4.5 10:07:15 42° SSE 10:07:15 42° SSE 10:13:31 10° E
Cosmos 2228 4.4 10:05:55 10° NNE 10:09:55 35° E 10:11:19 28° ESE
ADEOS II 2.0 10:07:47 10° N 10:13:00 69° WNW 10:13:19 68° W
Cosmos 1536 Rocket 4.0 10:13:47 52° NW 10:13:47 52° NW 10:17:25 10° N
IDEFIX/ARIANE 42P 2.4 10:08:02 10° NNE 10:13:19 85° WNW 10:13:52 72° SSW
Cosmos 2074 Rocket 4.0 10:09:58 10° NNW 10:16:11 64° W 10:17:15 56° SW
OAO 2 Rocket 3.6 10:16:57 52° SE 10:16:57 52° SE 10:21:17 10° E
Cosmos 2278 Rocket 4.3 10:13:27 10° WNW 10:14:24 13° WNW 10:14:24 13° WNW
Cosmos 1455 3.8 10:19:16 10° NNW 10:21:06 26° NNW 10:21:06 26° NNW
Cosmos 1295 Rocket 4.4 10:17:07 10° N 10:23:29 89° W 10:26:12 37° S
NOSS 3-3 (A) 3.6 10:23:18 58° SSW 10:24:27 86° ESE 10:30:33 10° NNE
NOSS 3-3 (C) 3.6 10:23:24 58° SSW 10:24:33 85° ESE 10:30:38 10° NNE
Cosmos 614 Rocket 4.1 10:20:01 10° NNW 10:25:14 74° ENE 10:27:52 30° SSE
Meteor 1-21 Rocket 4.3 10:23:46 43° S 10:25:37 74° E 10:31:12 10° NNE
Cosmos 1271 Rocket 2.8 10:24:17 10° N 10:27:50 74° NNE 10:27:50 74° NNE
SL-16 R/B 3.4 10:27:21 25° WNW 10:28:08 26° WNW 10:32:52 10° N
IRS-1D 3.6 10:23:23 10° NNE 10:28:43 78° ESE 10:30:15 47° S
UNK 4.3 10:30:44 42° WNW 10:30:44 42° WNW 10:34:25 10° NNW
DNEPR-1 R/B 3.4 10:29:53 71° SE 10:30:06 73° ESE 10:34:28 10° NNE
Cosmos 2251 Rocket 4.4 10:25:20 10° N 10:30:26 47° ENE 10:35:31 10° SE
Cosmos 2184 Rocket 4.2 10:25:28 10° NNW 10:31:25 49° W 10:32:27 44° WSW
Cosmos 2369 Rocket 3.2 10:26:06 10° N 10:31:27 45° ENE 10:36:46 10° SE
Cosmos 1610 Rocket 4.3 10:28:51 10° N 10:34:58 74° W 10:37:27 38° S
COSMOS 2441 4.2 10:33:00 10° N 10:37:51 82° WNW 10:38:59 53° SSW
MOS 1 Rocket 3.9 10:39:45 35° WNW 10:39:45 35° WNW 10:42:55 10° NNW
COSMOS 2455 3.7 10:40:30 31° W 10:42:13 37° WNW 10:47:47 10° N
Cosmos 1606 Rocket 4.1 10:38:24 10° N 10:42:44 56° E 10:45:25 21° SSE
Cosmos 2181 Rocket 4.3 10:42:09 20° S 10:46:33 65° E 10:52:40 10° NNE
Helios 1B rocket 2.8 10:44:43 10° NNE 10:48:44 58° E 10:50:15 34° SSE
Cosmos 962 Rocket 4.4 10:43:33 10° N 10:49:41 86° E 10:54:48 15° S
Cosmos 1328 3.6 10:49:40 58° SSW 10:50:23 86° W 10:54:22 10° N
Cosmos 1603 3.6 10:49:16 39° SSW 10:51:27 79° WNW 10:57:08 10° NNE
ALOS 3.5 10:48:50 10° NNE 10:53:10 38° E 10:56:51 14° SSE
Helios 1A 3.5 10:56:14 39° W 10:56:14 39° W 11:00:04 10° NNW
Lacrosse 5 rocket 3.8 10:55:44 10° NW 10:56:37 11° NNW 10:57:31 10° NNW
MOS 1-B Rocket 4.4 10:51:17 10° SSE 10:56:48 58° ENE 11:02:21 10° N
Lacrosse 5 4.3 10:54:36 10° WNW 10:56:50 13° NNW 10:59:03 10° N
CZ-2C R/B 3.3 10:54:58 10° NNE 10:59:51 46° E 11:04:03 13° S
MSX 4.4 10:56:03 10° N 11:01:25 42° WNW 11:03:41 29° WSW
Chunghua 1 4.3 11:01:47 41° WNW 11:02:53 81° N 11:06:26 10° E
Cosmos 1420 Rocket 4.5 11:00:33 19° S 11:04:06 56° ESE 11:09:10 10° NNE
Lacrosse 4 Rocket 2.8 11:03:46 16° SSE 11:06:39 34° ESE 11:10:30 10° NE
Cosmos 1892 Rocket 3.6 11:10:34 31° SSW 11:12:34 62° W 11:17:00 10° N
Cosmos 1371 Rocket 3.9 11:10:42 26° SSW 11:13:41 81° WNW 11:18:53 10° NNE
GPS 2-04 Rocket1 2.2 11:12:57 42° WSW 11:14:00 88° SSE 11:17:32 10° ENE
Cosmos 1825 3.9 11:11:39 10° SSE 11:14:54 30° E 11:18:10 10° NNE
Cosmos 407 Rocket 3.7 11:11:40 10° NNW 11:16:58 72° ENE 11:22:11 10° SSE
Meteor 1-11 4.2 11:16:50 16° SSW 11:21:32 81° W 11:27:21 10° N
Cosmos 1726 Rocket 3.5 11:17:48 10° NNW 11:22:09 63° W 11:25:45 14° S
Cosmos 1943 4.0 11:19:48 23° WSW 11:22:40 37° WNW 11:27:54 10° N
BREEZE-M DEB (TANK) 4.4 11:20:17 15° W 11:23:14 23° NW 11:25:34 10° NNE
[s.n.52708] 4.1 11:24:35 23° WNW 11:25:22 26° NW 11:27:50 10° NNE
[s.n.52707] 4.1 11:24:42 23° WNW 11:25:30 26° NW 11:27:57 10° NNE
[s.n.52703] 4.1 11:24:49 22° WNW 11:25:37 26° NW 11:28:04 10° NNE
[s.n.52705] 4.1 11:24:55 22° WNW 11:25:44 26° NW 11:28:11 10° NNE
[s.n.52706] 4.1 11:25:02 22° WNW 11:25:51 26° NW 11:28:18 10° NNE
[s.n.52701] 4.1 11:25:09 22° WNW 11:25:58 26° NW 11:28:25 10° NNE
[s.n.52704] 4.1 11:25:16 22° WNW 11:26:05 26° NW 11:28:32 10° NNE
[s.n.52699] 4.1 11:25:22 22° WNW 11:26:12 26° NW 11:28:39 10° NNE
[s.n.52702] 4.1 11:25:29 22° WNW 11:26:19 26° NW 11:28:46 10° NNE
[s.n.52697] 4.2 11:25:36 22° WNW 11:26:26 26° NW 11:28:53 10° NNE
[s.n.52700] 4.2 11:25:42 22° WNW 11:26:33 26° NW 11:28:59 10° NNE
[s.n.52695] 4.2 11:25:50 22° WNW 11:26:41 25° NW 11:29:07 10° NNE
Meteor 2-1 Rocket 4.4 11:21:14 10° NNW 11:26:47 54° W 11:32:12 10° S
[s.n.52698] 4.2 11:25:56 22° WNW 11:26:47 25° NW 11:29:14 10° NNE
[s.n.52693] 4.2 11:26:03 22° WNW 11:26:55 25° NW 11:29:21 10° NNE
Cosmos 1140 Rocket 3.4 11:21:40 10° NNW 11:26:56 85° WSW 11:32:09 10° SSE
[s.n.52696] 4.2 11:26:10 21° WNW 11:27:02 25° NW 11:29:28 10° NNE
[s.n.52691] 4.2 11:26:17 21° WNW 11:27:09 25° NW 11:29:35 10° NNE
[s.n.52689] 4.2 11:26:24 21° WNW 11:27:16 25° NW 11:29:42 10° NNE
[s.n.52694] 4.2 11:26:31 21° WNW 11:27:23 25° NW 11:29:49 10° NNE
[s.n.52692] 4.2 11:26:37 21° WNW 11:27:30 25° NW 11:29:56 10° NNE
[s.n.52687] 4.2 11:26:44 21° WNW 11:27:37 25° NW 11:30:03 10° NNE
[s.n.52685] 4.2 11:26:51 21° WNW 11:27:44 25° NW 11:30:10 10° NNE
[s.n.52690] 4.2 11:26:58 21° WNW 11:27:52 25° NW 11:30:17 10° NNE
[s.n.52688] 4.2 11:27:05 21° WNW 11:27:59 25° NW 11:30:24 10° NNE
[s.n.52683] 4.2 11:27:11 21° WNW 11:28:06 25° NW 11:30:31 10° NNE
[s.n.52686] 4.2 11:27:19 21° WNW 11:28:14 25° NW 11:30:39 10° NNE
[s.n.52681] 4.2 11:27:26 21° WNW 11:28:21 25° NW 11:30:46 10° NNE
[s.n.52679] 4.3 11:27:32 20° WNW 11:28:28 24° NW 11:30:53 10° NNE
[s.n.52684] 4.3 11:27:39 20° WNW 11:28:35 24° NW 11:31:00 10° NNE
[s.n.52682] 4.3 11:27:46 20° WNW 11:28:42 24° NW 11:31:07 10° NNE
[s.n.52677] 4.3 11:27:53 20° WNW 11:28:50 24° NW 11:31:14 10° NNE
[s.n.52680] 4.3 11:28:00 20° WNW 11:28:57 24° NW 11:31:22 10° NNE
[s.n.52675] 4.3 11:28:07 20° WNW 11:29:04 24° NW 11:31:28 10° NNE
[s.n.52678] 4.3 11:28:14 20° WNW 11:29:12 24° NW 11:31:36 10° NNE
[s.n.52673] 4.3 11:28:22 20° WNW 11:29:20 24° NW 11:31:43 10° NNE
[s.n.52676] 4.3 11:28:28 20° WNW 11:29:27 24° NW 11:31:50 10° NNE
[s.n.52671] 4.3 11:28:36 20° WNW 11:29:35 24° NW 11:31:58 10° NNE
[s.n.52669] 4.3 11:28:42 20° WNW 11:29:41 24° NW 11:32:05 10° NNE
[s.n.52674] 4.3 11:28:50 20° WNW 11:29:49 24° NW 11:32:12 10° NNE
[s.n.52672] 4.3 11:28:56 19° WNW 11:29:56 24° NW 11:32:19 10° NNE
[s.n.52667] 4.3 11:29:04 19° WNW 11:30:04 24° NW 11:32:27 10° NNE
[s.n.52665] 4.3 11:29:11 19° WNW 11:30:11 24° NW 11:32:34 10° NNE
[s.n.52670] 4.3 11:29:18 19° WNW 11:30:19 24° NW 11:32:41 10° NNE
[s.n.52668] 4.3 11:29:25 19° WNW 11:30:26 23° NW 11:32:49 10° NNE
[s.n.52666] 4.3 11:29:32 19° WNW 11:30:34 23° NW 11:32:56 10° NNE
[s.n.52663] 4.3 11:29:39 19° WNW 11:30:41 23° NW 11:33:03 10° NNE
[s.n.52662] 4.3 11:29:46 19° WNW 11:30:48 23° NW 11:33:10 10° NNE
[s.n.52664] 4.3 11:29:54 19° WNW 11:30:56 23° NW 11:33:18 10° NNE
[s.n.52661] 4.4 11:30:01 19° WNW 11:31:03 23° NW 11:33:25 10° NNE
[s.n.52660] 4.4 11:30:08 19° WNW 11:31:11 23° NW 11:33:33 10° NNE
SeaSat 1 2.8 11:26:19 10° NNE 11:31:12 64° ESE 11:35:57 11° SSW
[s.n.52656] 4.4 11:30:15 19° WNW 11:31:18 23° NW 11:33:40 10° NNE
[s.n.52658] 4.4 11:30:23 19° WNW 11:31:26 23° NW 11:33:48 10° NNE
[s.n.52659] 4.4 11:30:29 18° WNW 11:31:33 23° NW 11:33:55 10° NNE
[s.n.52657] 4.4 11:30:37 18° WNW 11:31:41 23° NW 11:34:03 10° NNE
Cosmos 1892 2.6 11:29:36 19° SSW 11:32:14 68° W 11:36:00 10° N
Cosmos 2366 rocket 3.9 11:27:09 10° N 11:33:17 73° W 11:39:28 10° S
Cosmos 1484 Rocket 4.4 11:29:51 10° NNE 11:33:25 34° E 11:36:58 10° SSE
BREEZE-M DEB (TANK) 3.7 11:32:29 20° W 11:34:26 49° NNW 11:41:54 10° NE
Cosmos 2341 Rocket 4.3 11:28:49 10° NNW 11:34:53 47° W 11:40:56 10° SSW
SL-24 DEB 4.4 11:30:50 12° S 11:35:12 55° W 11:39:50 10° NNW
SL-8 Rocket 4.2 11:34:12 10° NNW 11:40:18 52° W 11:46:21 10° SSW
IRS-1C 4.1 11:35:28 10° N 11:40:46 68° WNW 11:46:03 10° SSW
Cosmos 1408 3.1 11:38:52 19° SW 11:41:02 40° W 11:44:29 10° N
DELTA 2 DEB (DPAF) 4.1 11:42:40 10° SSE 11:47:05 89° ENE 11:51:31 10° NNW
Cosmos 1943 Rocket 4.0 11:46:28 10° W 11:47:48 11° W 11:47:58 11° W
FENGYUN 3A 4.1 11:43:11 10° N 11:48:17 46° WNW 11:53:14 11° SW
Cosmos 2263 4.4 11:45:47 10° NNW 11:51:14 48° WSW 11:56:43 10° S
ARIANE 5 R/B 2.6 11:47:32 10° N 11:52:30 61° WNW 11:57:24 10° SSW
